Date,TemperatureHighF,TemperatureAvgF,TemperatureLowF,DewpointHighF,DewpointAvgF,DewpointLowF,HumidityHigh,HumidityAvg,HumidityLow,PressureMaxIn,PressureMinIn,WindSpeedMaxMPH,WindSpeedAvgMPH,GustSpeedMaxMPH,PrecipitationSumIn
2013-6-1,99,85,77,75,72,71,85,67,43,29.84,29.72,15,2,15,0.00
2013-6-2,92,79,68,74,66,56,95,67,32,30.02,29.84,11,0,11,0.09
2013-6-3,96,78,61,68,62,55,98,65,26,29.95,29.77,7,1,7,0.00
2013-6-4,95,82,69,69,66,62,94,62,35,29.85,29.73,9,2,9,0.00
2013-6-5,96,83,70,70,67,62,92,62,34,29.84,29.68,13,2,13,0.00
2013-6-6,100,84,70,71,67,62,93,60,30,29.89,29.71,9,1,9,0.00
2013-6-7,89,78,66,66,60,50,90,59,27,29.96,29.82,5,0,5,0.00
2013-6-8,92,77,59,71,63,56,93,64,41,29.90,29.73,10,1,10,0.00
2013-6-9,92,80,68,74,71,65,96,75,49,29.93,29.78,10,1,10,0.31
2013-6-10,99,83,68,74,69,59,98,67,29,29.95,29.84,8,1,8,0.00
2013-6-11,96,84,74,73,70,62,94,67,40,29.97,29.88,14,1,14,0.00
2013-6-12,98,84,75,74,71,67,91,68,38,29.99,29.87,12,2,12,0.00
2013-6-13,99,83,73,75,71,65,94,69,39,30.01,29.88,13,1,13,0.00
2013-6-14,94,82,73,76,73,70,91,76,50,29.94,29.84,7,0,7,0.00
2013-6-15,91,82,76,76,73,71,92,76,54,29.94,29.84,5,0,5,0.00
2013-6-16,98,86,73,74,70,63,94,62,34,29.96,29.83,12,1,12,0.00
2013-6-17,100,87,76,74,70,63,86,61,34,29.95,29.78,12,2,12,0.00
2013-6-18,84,80,72,74,72,67,93,77,68,29.93,29.85,7,1,7,0.15
2013-6-19,98,86,74,73,70,67,95,63,38,29.91,29.82,4,1,16,0.00
2013-6-20,98,86,75,72,68,64,87,58,34,29.99,29.87,4,2,16,0.00
2013-6-21,98,87,76,73,68,58,86,58,29,30.01,29.89,13,3,13,0.00
2013-6-22,99,86,76,72,68,60,88,57,31,29.99,29.81,12,3,12,0.00
2013-6-23,95,85,76,73,67,57,86,57,31,29.92,29.82,13,3,14,0.00
2013-6-24,100,86,76,73,69,64,85,60,32,29.97,29.82,11,3,17,0.00
2013-6-25,100,88,78,73,68,61,83,57,29,29.94,29.78,14,3,14,0.00
2013-6-26,102,88,77,73,69,61,81,56,29,29.91,29.79,12,3,12,0.00
2013-6-27,105,88,76,72,65,53,83,52,20,29.97,29.82,12,2,12,0.00
2013-6-28,109,90,74,73,66,58,86,51,21,29.94,29.73,9,1,9,0.00
2013-6-29,111,92,72,72,64,54,84,45,17,29.81,29.67,9,0,9,0.00
2013-6-30,96,84,71,72,66,58,93,56,34,29.91,29.75,9,1,9,0.10